Flag for Costa Rica Weather past 2 weeks in San Jose, Costa Rica

Now
64 °F

Clear.


Feels Like: 64 °F
Forecast: 64 / 76 °F
Wind: 5 mph from Northeast

Location: Juan Santamaria

Current Time: Sep 23, 2014 at 2:23:42 AM

Latest Report: Sep 23, 2014 at 2:00 AM


Visibility: 10 mi

Pressure: 30.00 "Hg

Humidity: 100%

Dew point: 64 °F

Location of San JoseLocation

Historic Weather in San Jose — Graph

°F

San Jose temperature yesterday

Maximum temperature yesterday: 79 °F (at 10:00 AM)
Minimum temperature yesterday: 63 °F (at 12:00 AM)
Average temperature yesterday: 70 °F

Past Weeks' High & Low Weather Summary

 TemperatureHumidityPressure
High84 °F (Sep 17, 12:00 PM)100% (Sep 8, 9:00 PM)30.14 "Hg (Sep 8, 9:00 PM)
Low63 °F (Sep 22, 12:00 AM)48% (Sep 16, 12:00 PM)29.90 "Hg (Sep 11, 3:00 PM)
Average71 °F84%30.01 "Hg
* Reported Sep 8 1:00 AM — Sep 23 1:00 AM, San Jose, Weather by CustomWeather, © 2014

Note: Actual official high and low records may vary slightly from our data, if they occured in-between our weather recording intervals... More about our weather records

Advertising

San Jose weather history for previous 24 hours

 ConditionsComfort  
Time TempWeatherWind HumidityBarometerVisibility
1:00 AM
Sep 23
66 °FPassing clouds.3 mph94%30.02 "HgN/A
12:00 AM66 °FPassing clouds.No wind94%30.04 "HgN/A
11:00 PM
Sep 22
66 °FPassing clouds.2 mph100%30.06 "HgN/A
10:00 PM66 °FPassing clouds.2 mph100%30.05 "HgN/A
9:00 PM68 °FClear.6 mph88%30.03 "Hg10 mi
8:00 PM68 °FClear.8 mph94%30.02 "Hg10 mi
7:00 PM68 °FPassing clouds.5 mph94%30.02 "HgN/A
6:00 PM68 °FLight rain. Fog.2 mph94%30.02 "Hg2 mi
5:00 PM68 °FFog.5 mph94%30.00 "Hg5 mi
4:00 PM68 °FFog.7 mph94%29.99 "Hg1 mi
3:00 PM68 °FThundershowers. Fog.14 mph100%29.98 "Hg1 mi
2:00 PM75 °FThunderstorms. Broken clouds.12 mph78%29.97 "HgN/A
1:00 PM77 °FScattered clouds.9 mph74%29.99 "HgN/A
12:00 PM79 °FWarm.10 mph70%30.02 "HgN/A
11:00 AM77 °FScattered clouds.8 mph69%30.05 "HgN/A
10:00 AM79 °FScattered clouds.7 mph65%30.07 "HgN/A
9:00 AM77 °FPassing clouds.8 mph65%30.07 "HgN/A
8:00 AM77 °FSunny.3 mph61%30.06 "Hg10 mi
7:00 AM73 °FSunny.6 mph69%30.04 "Hg10 mi
6:00 AM66 °FSunny.7 mph78%30.03 "Hg10 mi
5:00 AM66 °FClear.7 mph78%30.02 "Hg10 mi
4:00 AM66 °FClear.3 mph78%30.01 "Hg10 mi
3:00 AM66 °FClear.8 mph83%29.99 "Hg10 mi
2:00 AM68 °FClear.7 mph78%30.00 "Hg10 mi
Weather by CustomWeather, © 2014

See weather overviewHow to use our weather pages